Torna al catalogo

STARLINK-35084

AttivoComunicazioniSSO
NORAD 65452·PAYLOAD·🇺🇸 United States

Lanciato Sep 3, 2025 da Vandenberg Space Force Base

Loading…

Prossimi Passaggi (prossime 24 ore)

TLE

AggiornatoSource: CelesTrak SupGP

Epoca: Sep 14, 2026, 21:30 UTC

1 65452C 25194U   26257.89631944  .00055121  00000+0  17116-2 0  2577
2 65452  97.2848 107.6289 0001906  95.2762 126.4546 15.33400897    11

Traccia STARLINK-35084 in tempo reale con AllMySat

Download on the App Store